Weather History for KRND - November, 2013

Change the Weather History Date:

Friday, November 8, 2013

  Actual Average Record
Temperature  
Mean Temperature 57 °F -  
Max Temperature 63 °F 70 °F 86 °F (2005)
Min Temperature 51 °F 51 °F 37 °F (2000)
Degree Days  
Heating Degree Days 8    
Growing Degree Days 7 (Base 50)    
Moisture  
Dew Point 39 °F    
Average Humidity 55    
Maximum Humidity 73    
Minimum Humidity 32    
Precipitation  
Precipitation 0.00 in - - ()
Sea Level Pressure  
Sea Level Pressure 30.31 in    
Wind  
Wind Speed 6 mph (NE)    
Max Wind Speed 10 mph    
Max Gust Speed -    
Visibility 8 miles    
Events      
Averages and records for this station are not official NWS values.
T = Trace of Precipitation, MM = Missing Value Source: NWS Daily Summary

Daily Weather History Graph

Daily Weather History Graph

Search for Another Location

Airport or City:

Trip Planner

Search our weather history database for the weather conditions in past years. The results will help you decide how hot, cold, wet, or windy it might be!

Date:

Astronomy

Nov. 08, 2013 Rise Set
Actual Time 6:51 AM CST 5:41 PM CST
Civil Twilight 6:27 AM CST 6:06 PM CST
Nautical Twilight 5:58 AM CST 6:34 PM CST
Astronomical Twilight 5:30 AM CST 7:02 PM CST
Moon 11:48 AM CST (11/8) 11:02 PM CST (11/8)
Length of Visible Light 11h 39m
Length of Day
10h 49m
Waxing Crescent, 33% of the Moon is Illuminated
Nov 8
Waxing Crescent
Nov 9
First Quarter
Nov 17
Full
Nov 25
Last Quarter
Dec 2
New

Hourly Weather History & Observations

Time (CST) Temp. Dew Point Humidity Pressure Visibility Wind Dir Wind Speed Gust Speed Precip Events Conditions
12:13 AM 53.6 °F 37.4 °F 54% 30.38 in 9.0 mi NNE 5.8 mph - N/A   Mostly Cloudy
12:23 AM 53.6 °F 37.4 °F 54% 30.38 in 5.0 mi NNE 6.9 mph - N/A   Haze
12:33 AM 53.6 °F 37.4 °F 54% 30.37 in 4.0 mi NE 6.9 mph - N/A   Haze
12:38 AM 53.6 °F 37.4 °F 54% 30.37 in 4.0 mi NNE 6.9 mph - N/A   Haze
12:43 AM 53.6 °F 37.4 °F 54% 30.37 in 6.0 mi NNE 5.8 mph - N/A   Haze
12:53 AM 53.6 °F 37.4 °F 54% 30.38 in 7.0 mi North 6.9 mph - N/A   Scattered Clouds
12:58 AM 54.5 °F 37.8 °F 53% 30.38 in 10.0 mi NNE 5.8 mph - N/A   Scattered Clouds
1:48 AM 53.6 °F 39.2 °F 58% 30.37 in 9.0 mi NNE 8.1 mph - N/A   Partly Cloudy
1:53 AM 53.6 °F 39.2 °F 58% 30.36 in 6.0 mi NNE 6.9 mph - N/A   Haze
1:58 AM 53.6 °F 38.5 °F 57% 30.36 in 6.0 mi NNE 6.9 mph - N/A   Haze
2:03 AM 53.6 °F 39.2 °F 58% 30.36 in 8.0 mi NNE 6.9 mph - N/A   Partly Cloudy
2:08 AM 53.6 °F 39.2 °F 58% 30.36 in 10.0 mi NNE 6.9 mph - N/A   Partly Cloudy
2:13 AM 53.6 °F 39.2 °F 58% 30.36 in 9.0 mi NNE 5.8 mph - N/A   Scattered Clouds
2:28 AM 53.6 °F 39.2 °F 58% 30.35 in 3.0 mi NE 5.8 mph - N/A   Haze
2:33 AM 53.6 °F 39.2 °F 58% 30.35 in 2.5 mi NNE 4.6 mph - N/A   Haze
2:38 AM 53.6 °F 39.2 °F 58% 30.35 in 3.0 mi NNE 3.5 mph - N/A   Haze
2:43 AM 53.6 °F 39.2 °F 58% 30.35 in 7.0 mi NNE 4.6 mph - N/A   Scattered Clouds
2:48 AM 53.6 °F 39.2 °F 58% 30.35 in 10.0 mi NNE 4.6 mph - N/A   Mostly Cloudy
2:58 AM 52.9 °F 39.2 °F 60% 30.35 in 10.0 mi NNE 4.6 mph - N/A   Mostly Cloudy
3:58 AM 52.7 °F 39.4 °F 61% 30.34 in 10.0 mi North 5.8 mph - N/A   Mostly Cloudy
4:58 AM 52.0 °F 39.7 °F 63% 30.34 in 10.0 mi NNE 5.8 mph - N/A   Overcast
5:58 AM 51.3 °F 40.1 °F 66% 30.34 in 10.0 mi NNE 5.8 mph - N/A   Overcast
6:58 AM 51.1 °F 39.9 °F 66% 30.35 in 8.0 mi NNE 5.8 mph - N/A   Overcast
7:58 AM 52.5 °F 39.9 °F 62% 30.36 in 10.0 mi NE 5.8 mph - N/A   Clear
8:58 AM 56.8 °F 38.7 °F 51% 30.37 in 10.0 mi ENE 9.2 mph - N/A   Mostly Cloudy
9:58 AM 59.2 °F 37.0 °F 44% 30.37 in 10.0 mi East 9.2 mph - N/A   Overcast
10:58 AM 61.2 °F 30.7 °F 32% 30.36 in 10.0 mi East 10.4 mph - N/A   Mostly Cloudy
11:58 AM 61.0 °F 33.6 °F 36% 30.32 in 10.0 mi East 9.2 mph - N/A   Mostly Cloudy
12:58 PM 61.9 °F 35.2 °F 37% 30.29 in 10.0 mi ESE 6.9 mph - N/A   Mostly Cloudy
1:58 PM 63.3 °F 34.9 °F 35% 30.25 in 10.0 mi ESE 8.1 mph - N/A   Clear
2:58 PM 63.5 °F 35.4 °F 35% 30.24 in 10.0 mi SE 4.6 mph - N/A   Clear
3:58 PM 63.3 °F 36.3 °F 37% 30.21 in 10.0 mi ESE 4.6 mph - N/A   Clear
4:58 PM 61.9 °F 39.4 °F 43% 30.20 in 10.0 mi SE 4.6 mph - N/A   Clear
5:58 PM 60.1 °F 42.1 °F 51% 30.21 in 10.0 mi East 2.3 mph - N/A   Scattered Clouds
6:58 PM 59.9 °F 41.9 °F 51% 30.20 in 10.0 mi ENE 1.2 mph - N/A   Partly Cloudy
7:09 PM 59.0 °F 42.8 °F 55% 30.21 in 10.0 mi ENE 2.3 mph - N/A   Light Drizzle
7:29 PM 57.2 °F 46.4 °F 67% 30.21 in 10.0 mi ENE 3.5 mph - N/A   Clear
7:58 PM 57.7 °F 45.7 °F 64% 30.21 in 10.0 mi East 3.5 mph - 0.00 in   Clear
8:58 PM 57.2 °F 44.8 °F 63% 30.20 in 10.0 mi ENE 3.5 mph - N/A   Scattered Clouds
9:58 PM 57.0 °F 46.0 °F 67% 30.20 in 9.0 mi SSE 2.3 mph - N/A   Mostly Cloudy
10:58 PM 56.7 °F 46.8 °F 69% 30.20 in 10.0 mi SSE 3.5 mph - N/A   Scattered Clouds
11:58 PM 55.6 °F 46.9 °F 73% 30.18 in 10.0 mi SSE 4.6 mph - N/A   Mostly Cloudy